• In Germany
  • List of Countries
  • For 7 days
  • Water Temperature
  • Satellite Maps
  • Weather Map
  • Weather Widgets
  • user-avatar
    Login

    Hourly Weather Konstantyna

    Today, 25 February, Sunday

    Time Temperature Precipitation Wind Pressure Humidity
    00:00 +6°C° 0 mm 1 mps 702 mmHg 92%
    01:00 +6°C° 0.1 mm 1 mps 702 mmHg 92%
    02:00 +6°C° 0.1 mm 1 mps 702 mmHg 92%
    03:00 +5°C° 0.1 mm 1 mps 702 mmHg 93%
    04:00 +5°C° 0 mm 1 mps 702 mmHg 93%
    05:00 +4°C° 0 mm 1 mps 702 mmHg 93%
    06:00 +3°C° 0 mm 2 mps 702 mmHg 93%
    07:00 +4°C° 0 mm 2 mps 703 mmHg 86%
    08:00 +6°C° 0 mm 2 mps 703 mmHg 79%
    09:00 +7°C° 0 mm 2 mps 704 mmHg 72%
    10:00 +8°C° 0 mm 3 mps 704 mmHg 67%
    11:00 +8°C° 0 mm 4 mps 704 mmHg 62%
    12:00 +9°C° 0 mm 5 mps 704 mmHg 57%
    13:00 +9°C° 0 mm 5 mps 704 mmHg 56%
    14:00 +9°C° 0 mm 5 mps 704 mmHg 54%
    15:00 +9°C° 0 mm 5 mps 704 mmHg 53%
    16:00 +7°C° 0 mm 4 mps 704 mmHg 59%
    17:00 +7°C° 0 mm 3 mps 704 mmHg 64%
    18:00 +5°C° 0 mm 2 mps 704 mmHg 70%
    19:00 +5°C° 0 mm 2 mps 704 mmHg 70%
    20:00 +4°C° 0 mm 2 mps 704 mmHg 71%
    21:00 +4°C° 0 mm 2 mps 704 mmHg 71%
    22:00 +4°C° 0 mm 2 mps 704 mmHg 71%
    23:00 +4°C° 0 mm 2 mps 704 mmHg 72%

    Tomorrow, 26 February, Monday

    Time Temperature Precipitation Wind Pressure Humidity
    00:00 +4°C° 0 mm 2 mps 704 mmHg 72%
    01:00 +3°C° 0 mm 2 mps 704 mmHg 74%
    02:00 +3°C° 0 mm 2 mps 704 mmHg 75%
    03:00 +3°C° 0 mm 2 mps 704 mmHg 77%
    04:00 +3°C° 0 mm 2 mps 704 mmHg 76%
    05:00 +3°C° 0 mm 2 mps 703 mmHg 76%
    06:00 +2°C° 0 mm 2 mps 703 mmHg 76%
    07:00 +5°C° 0 mm 2 mps 704 mmHg 65%
    08:00 +7°C° 0 mm 2 mps 704 mmHg 55%
    09:00 +9°C° 0 mm 2 mps 704 mmHg 45%
    10:00 +10°C° 0 mm 2 mps 704 mmHg 41%
    11:00 +12°C° 0 mm 2 mps 704 mmHg 37%
    12:00 +14°C° 0 mm 2 mps 704 mmHg 33%
    13:00 +13°C° 0 mm 3 mps 703 mmHg 33%
    14:00 +13°C° 0 mm 3 mps 703 mmHg 34%
    15:00 +14°C° 0 mm 3 mps 702 mmHg 34%
    16:00 +12°C° 0 mm 2 mps 702 mmHg 43%
    17:00 +9°C° 0 mm 2 mps 701 mmHg 53%
    18:00 +8°C° 0 mm 1 mps 701 mmHg 62%
    19:00 +7°C° 0 mm 1 mps 701 mmHg 65%
    20:00 +7°C° 0 mm 1 mps 701 mmHg 68%
    21:00 +6°C° 0 mm 1 mps 701 mmHg 72%
    22:00 +6°C° 0 mm 1 mps 700 mmHg 70%
    23:00 +6°C° 0 mm 1 mps 700 mmHg 68%

    Day after tomorrow, 27 February, Tuesday

    Time Temperature Precipitation Wind Pressure Humidity
    00:00 +6°C° 0 mm 1 mps 700 mmHg 67%
    01:00 +6°C° 0 mm 1 mps 699 mmHg 64%
    02:00 +6°C° 0 mm 1 mps 699 mmHg 62%
    03:00 +6°C° 0 mm 1 mps 699 mmHg 60%
    04:00 +6°C° 0 mm 1 mps 699 mmHg 59%
    05:00 +6°C° 0 mm 1 mps 699 mmHg 58%
    06:00 +6°C° 0 mm 1 mps 699 mmHg 57%
    07:00 +8°C° 0 mm 1 mps 699 mmHg 54%
    08:00 +9°C° 0 mm 1 mps 700 mmHg 52%
    09:00 +11°C° 0 mm 1 mps 701 mmHg 49%
    10:00 +12°C° 0 mm 2 mps 701 mmHg 48%
    11:00 +13°C° 0 mm 2 mps 701 mmHg 46%
    12:00 +12°C° 0 mm 3 mps 702 mmHg 45%
    13:00 +12°C° 0 mm 3 mps 702 mmHg 47%
    14:00 +12°C° 0 mm 3 mps 702 mmHg 49%
    15:00 +12°C° 0 mm 3 mps 702 mmHg 51%
    16:00 +11°C° 0 mm 3 mps 702 mmHg 61%
    17:00 +9°C° 0 mm 2 mps 703 mmHg 71%
    18:00 +8°C° 0 mm 2 mps 703 mmHg 81%
    19:00 +7°C° 0 mm 2 mps 703 mmHg 85%
    20:00 +7°C° 0 mm 1 mps 704 mmHg 88%
    21:00 +7°C° 0 mm 1 mps 704 mmHg 92%
    22:00 +7°C° 0 mm 1 mps 704 mmHg 91%
    23:00 +7°C° 0 mm 1 mps 704 mmHg 89%

    28 February, Wednesday

    Time Temperature Precipitation Wind Pressure Humidity
    00:00 +5°C° 0 mm 2 mps 704 mmHg 88%
    01:00 +5°C° 0 mm 2 mps 704 mmHg 86%
    02:00 +5°C° 0 mm 2 mps 704 mmHg 85%
    03:00 +5°C° 0 mm 2 mps 704 mmHg 83%
    04:00 +5°C° 0 mm 2 mps 704 mmHg 83%
    05:00 +5°C° 0 mm 2 mps 704 mmHg 82%
    06:00 +5°C° 0 mm 2 mps 704 mmHg 82%
    07:00 +8°C° 0 mm 2 mps 705 mmHg 74%
    08:00 +11°C° 0 mm 3 mps 705 mmHg 66%
    09:00 +13°C° 0 mm 4 mps 705 mmHg 57%
    10:00 +15°C° 0 mm 5 mps 705 mmHg 51%
    11:00 +17°C° 0 mm 6 mps 705 mmHg 45%
    12:00 +20°C° 0 mm 8 mps 705 mmHg 39%
    13:00 +20°C° 0 mm 7 mps 705 mmHg 41%
    14:00 +20°C° 0 mm 7 mps 704 mmHg 42%
    15:00 +20°C° 0 mm 7 mps 704 mmHg 43%
    16:00 +17°C° 0 mm 6 mps 703 mmHg 46%
    17:00 +15°C° 0 mm 5 mps 703 mmHg 49%
    18:00 +13°C° 0 mm 4 mps 703 mmHg 52%
    19:00 +12°C° 0 mm 4 mps 703 mmHg 54%
    20:00 +12°C° 0 mm 4 mps 703 mmHg 55%
    21:00 +11°C° 0 mm 4 mps 703 mmHg 57%
    22:00 +11°C° 0 mm 4 mps 703 mmHg 56%
    23:00 +11°C° 0 mm 4 mps 702 mmHg 56%

    1 March, Thursday

    Time Temperature Precipitation Wind Pressure Humidity
    00:00 +11°C° 0 mm 4 mps 702 mmHg 55%
    01:00 +11°C° 0 mm 4 mps 702 mmHg 54%
    02:00 +11°C° 0 mm 4 mps 701 mmHg 53%
    03:00 +11°C° 0 mm 4 mps 701 mmHg 52%
    04:00 +10°C° 0 mm 4 mps 700 mmHg 52%
    05:00 +10°C° 0 mm 4 mps 700 mmHg 52%
    06:00 +10°C° 0 mm 4 mps 700 mmHg 52%
    07:00 +12°C° 0 mm 4 mps 700 mmHg 49%
    08:00 +15°C° 0 mm 5 mps 700 mmHg 45%
    09:00 +17°C° 0 mm 6 mps 701 mmHg 42%
    10:00 +20°C° 0 mm 8 mps 700 mmHg 38%
    11:00 +22°C° 0 mm 9 mps 700 mmHg 34%
    12:00 +24°C° 0 mm 11 mps 699 mmHg 30%
    13:00 +23°C° 0 mm 10 mps 699 mmHg 32%
    14:00 +22°C° 0 mm 9 mps 698 mmHg 34%
    15:00 +22°C° 0 mm 8 mps 698 mmHg 36%
    16:00 +18°C° 0.1 mm 7 mps 698 mmHg 45%
    17:00 +16°C° 0.1 mm 6 mps 699 mmHg 55%
    18:00 +13°C° 0.1 mm 5 mps 699 mmHg 65%
    19:00 +12°C° 0.1 mm 4 mps 700 mmHg 69%
    20:00 +11°C° 0.1 mm 3 mps 700 mmHg 73%
    21:00 +12°C° 0.1 mm 2 mps 701 mmHg 77%
    22:00 +11°C° 0 mm 3 mps 701 mmHg 76%
    23:00 +11°C° 0 mm 3 mps 701 mmHg 75%

    2 March, Friday

    Time Temperature Precipitation Wind Pressure Humidity
    00:00 +11°C° 0 mm 4 mps 701 mmHg 73%
    01:00 +11°C° 0 mm 4 mps 701 mmHg 77%
    02:00 +10°C° 0 mm 4 mps 701 mmHg 80%
    03:00 +10°C° 0 mm 4 mps 701 mmHg 83%
    04:00 +8°C° 0 mm 4 mps 701 mmHg 85%
    05:00 +9°C° 0 mm 3 mps 702 mmHg 86%
    06:00 +9°C° 0 mm 3 mps 702 mmHg 87%
    07:00 +11°C° 0 mm 4 mps 703 mmHg 79%
    08:00 +13°C° 0 mm 4 mps 703 mmHg 71%
    09:00 +14°C° 0 mm 4 mps 704 mmHg 63%
    10:00 +15°C° 0 mm 5 mps 704 mmHg 58%
    11:00 +16°C° 0 mm 5 mps 705 mmHg 54%
    12:00 +17°C° 0 mm 5 mps 705 mmHg 49%
    13:00 +17°C° 0 mm 5 mps 705 mmHg 49%
    14:00 +19°C° 0 mm 5 mps 705 mmHg 48%
    15:00 +19°C° 0 mm 4 mps 704 mmHg 48%
    16:00 +17°C° 0 mm 3 mps 704 mmHg 56%
    17:00 +14°C° 0 mm 3 mps 704 mmHg 65%
    18:00 +14°C° 0 mm 2 mps 704 mmHg 73%
    19:00 +14°C° 0 mm 1 mps 704 mmHg 74%
    20:00 +14°C° 0 mm 1 mps 705 mmHg 75%
    21:00 +14°C° 0 mm 1 mps 705 mmHg 75%
    22:00 +14°C° 0 mm 1 mps 705 mmHg 75%
    23:00 +13°C° 0 mm 2 mps 705 mmHg 74%
    Show more